• In Belarus
  • List of Countries
  • For 7 days
  • Water Temperature
  • Satellite Maps
  • Weather Map
  • Weather Widgets
  • user-avatar
    Login

    Hourly Weather Sherpur

    Today, 16 January, Wednesday

    Time Temperature Precipitation Wind Pressure Humidity
    00:00 +4°C° 0 mm 1 mps 606 mmHg 59%
    01:00 +3°C° 0 mm 1 mps 606 mmHg 59%
    02:00 +3°C° 0 mm 1 mps 606 mmHg 59%
    03:00 +3°C° 0 mm 1 mps 606 mmHg 59%
    04:00 +3°C° 0 mm 1 mps 605 mmHg 59%
    05:00 +2°C° 0 mm 2 mps 606 mmHg 60%
    06:00 +2°C° 0 mm 2 mps 606 mmHg 60%
    07:00 +1°C° 0 mm 2 mps 606 mmHg 59%
    08:00 +1°C° 0 mm 2 mps 606 mmHg 59%
    09:00 +3°C° 0 mm 1 mps 606 mmHg 61%
    10:00 +5°C° 0 mm 1 mps 607 mmHg 62%
    11:00 +6°C° 0 mm 1 mps 608 mmHg 64%
    12:00 +7°C° 0 mm 1 mps 608 mmHg 63%
    13:00 +7°C° 0 mm 1 mps 607 mmHg 61%
    14:00 +8°C° 0 mm 1 mps 607 mmHg 60%
    15:00 +7°C° 0 mm 1 mps 607 mmHg 60%
    16:00 +6°C° 0 mm 1 mps 607 mmHg 60%
    17:00 +5°C° 0 mm 1 mps 607 mmHg 61%
    18:00 +4°C° 0 mm 1 mps 608 mmHg 60%
    19:00 +2°C° 0 mm 2 mps 608 mmHg 60%
    20:00 +1°C° 0 mm 2 mps 608 mmHg 59%
    21:00 +1°C° 0 mm 2 mps 609 mmHg 58%
    22:00 -1°C° 0 mm 2 mps 609 mmHg 57%
    23:00 -1°C° 0 mm 2 mps 609 mmHg 55%

    Tomorrow, 17 January, Thursday

    Time Temperature Precipitation Wind Pressure Humidity
    00:00 -1°C° 0 mm 2 mps 608 mmHg 54%
    01:00 -1°C° 0 mm 2 mps 608 mmHg 52%
    02:00 -2°C° 0 mm 2 mps 608 mmHg 51%
    03:00 -2°C° 0 mm 2 mps 608 mmHg 49%
    04:00 -2°C° 0 mm 2 mps 608 mmHg 47%
    05:00 -2°C° 0 mm 2 mps 607 mmHg 45%
    06:00 -2°C° 0 mm 2 mps 608 mmHg 43%
    07:00 -2°C° 0 mm 2 mps 608 mmHg 41%
    08:00 -2°C° 0 mm 2 mps 608 mmHg 39%
    09:00 +1°C° 0 mm 2 mps 608 mmHg 37%
    10:00 +3°C° 0 mm 2 mps 609 mmHg 35%
    11:00 +5°C° 0 mm 1 mps 609 mmHg 33%
    12:00 +6°C° 0 mm 1 mps 608 mmHg 32%
    13:00 +7°C° 0 mm 1 mps 608 mmHg 31%
    14:00 +7°C° 0 mm 1 mps 607 mmHg 30%
    15:00 +6°C° 0 mm 1 mps 607 mmHg 35%
    16:00 +4°C° 0 mm 0 mps 606 mmHg 39%
    17:00 +2°C° 0 mm 0 mps 605 mmHg 44%
    18:00 +2°C° 0 mm 0 mps 606 mmHg 45%
    19:00 +3°C° 0 mm 1 mps 606 mmHg 45%
    20:00 +3°C° 0 mm 1 mps 607 mmHg 46%
    21:00 +2°C° 0 mm 1 mps 607 mmHg 46%
    22:00 +2°C° 0 mm 1 mps 606 mmHg 45%
    23:00 +1°C° 0 mm 1 mps 606 mmHg 45%

    Day after tomorrow, 18 January, Friday

    Time Temperature Precipitation Wind Pressure Humidity
    00:00 +2°C° 0 mm 1 mps 606 mmHg 47%
    01:00 +2°C° 0 mm 1 mps 606 mmHg 48%
    02:00 +2°C° 0 mm 1 mps 606 mmHg 49%
    03:00 +2°C° 0 mm 1 mps 606 mmHg 50%
    04:00 +2°C° 0 mm 1 mps 606 mmHg 51%
    05:00 +1°C° 0 mm 1 mps 605 mmHg 52%
    06:00 +1°C° 0.1 mm 1 mps 605 mmHg 56%
    07:00 +1°C° 0.1 mm 1 mps 606 mmHg 61%
    08:00 +1°C° 0.1 mm 1 mps 606 mmHg 66%
    09:00 +1°C° 0.2 mm 1 mps 606 mmHg 67%
    10:00 -1°C° 0.2 mm 2 mps 606 mmHg 68%
    11:00 +1°C° 0.2 mm 2 mps 606 mmHg 70%
    12:00 -1°C° 0.6 mm 2 mps 605 mmHg 75%
    13:00 -1°C° 0.6 mm 2 mps 605 mmHg 80%
    14:00 -1°C° 0.6 mm 2 mps 604 mmHg 85%
    15:00 -1°C° 0.4 mm 2 mps 604 mmHg 85%
    16:00 -1°C° 0.4 mm 2 mps 604 mmHg 85%
    17:00 -1°C° 0.4 mm 2 mps 604 mmHg 85%
    18:00 -2°C° 0.3 mm 2 mps 605 mmHg 86%
    19:00 -2°C° 0.3 mm 2 mps 605 mmHg 86%
    20:00 -2°C° 0.3 mm 2 mps 606 mmHg 87%
    21:00 -2°C° 0.5 mm 2 mps 606 mmHg 87%
    22:00 0°C° 0.5 mm 1 mps 606 mmHg 87%
    23:00 0°C° 0.5 mm 1 mps 606 mmHg 87%

    19 January, Saturday

    Time Temperature Precipitation Wind Pressure Humidity
    00:00 0°C° 0 mm 1 mps 606 mmHg 86%
    01:00 -1°C° 0 mm 1 mps 606 mmHg 85%
    02:00 -1°C° 0 mm 1 mps 606 mmHg 84%
    03:00 -1°C° 0.1 mm 1 mps 606 mmHg 83%
    04:00 -1°C° 0.1 mm 1 mps 606 mmHg 82%
    05:00 -1°C° 0.1 mm 1 mps 606 mmHg 81%
    06:00 0°C° 0.3 mm 1 mps 606 mmHg 83%
    07:00 0°C° 0.3 mm 1 mps 606 mmHg 85%
    08:00 0°C° 0.3 mm 1 mps 606 mmHg 86%
    09:00 0°C° 0.5 mm 1 mps 606 mmHg 86%
    10:00 -2°C° 0.5 mm 2 mps 606 mmHg 85%
    11:00 -2°C° 0.5 mm 2 mps 606 mmHg 84%
    12:00 -1°C° 0.3 mm 2 mps 606 mmHg 82%
    13:00 -1°C° 0.3 mm 2 mps 605 mmHg 80%
    14:00 +1°C° 0.3 mm 2 mps 605 mmHg 77%
    15:00 -1°C° 0.1 mm 2 mps 605 mmHg 77%
    16:00 -1°C° 0.1 mm 2 mps 605 mmHg 76%
    17:00 -1°C° 0.1 mm 2 mps 604 mmHg 76%
    18:00 -2°C° 0.2 mm 2 mps 605 mmHg 78%
    19:00 -2°C° 0.2 mm 2 mps 605 mmHg 79%
    20:00 -3°C° 0.2 mm 2 mps 605 mmHg 81%
    21:00 -3°C° 0.6 mm 2 mps 605 mmHg 82%
    22:00 -3°C° 0.6 mm 2 mps 605 mmHg 84%
    23:00 -3°C° 0.6 mm 2 mps 605 mmHg 86%

    20 January, Sunday

    Time Temperature Precipitation Wind Pressure Humidity
    00:00 -3°C° 0.4 mm 2 mps 605 mmHg 86%
    01:00 -3°C° 0.4 mm 2 mps 605 mmHg 87%
    02:00 -4°C° 0.4 mm 2 mps 604 mmHg 87%
    03:00 -3°C° 0.4 mm 2 mps 604 mmHg 87%
    04:00 -3°C° 0.4 mm 2 mps 604 mmHg 87%
    05:00 -3°C° 0.4 mm 2 mps 604 mmHg 87%
    06:00 -3°C° 0.5 mm 2 mps 604 mmHg 88%
    07:00 -4°C° 0.5 mm 2 mps 604 mmHg 88%
    08:00 -4°C° 0.5 mm 2 mps 605 mmHg 88%
    09:00 -3°C° 0.7 mm 2 mps 605 mmHg 87%
    10:00 -4°C° 0.7 mm 3 mps 605 mmHg 87%
    11:00 -4°C° 0.7 mm 3 mps 605 mmHg 86%
    12:00 -2°C° 0.8 mm 3 mps 604 mmHg 86%
    13:00 -2°C° 0.8 mm 3 mps 604 mmHg 85%
    14:00 -2°C° 0.8 mm 3 mps 603 mmHg 85%
    15:00 -2°C° 0.5 mm 2 mps 603 mmHg 85%
    16:00 -3°C° 0.5 mm 2 mps 603 mmHg 86%
    17:00 -3°C° 0.5 mm 2 mps 603 mmHg 87%
    18:00 -3°C° 0.2 mm 2 mps 603 mmHg 87%
    19:00 -4°C° 0.2 mm 2 mps 604 mmHg 87%
    20:00 -4°C° 0.2 mm 2 mps 604 mmHg 86%
    21:00 -4°C° 0.2 mm 2 mps 604 mmHg 85%
    22:00 -2°C° 0.2 mm 1 mps 605 mmHg 84%
    23:00 -2°C° 0.2 mm 1 mps 605 mmHg 83%

    21 January, Monday

    Time Temperature Precipitation Wind Pressure Humidity
    00:00 -3°C° 0.1 mm 1 mps 605 mmHg 83%
    01:00 -3°C° 0.1 mm 1 mps 605 mmHg 82%
    02:00 -3°C° 0.1 mm 1 mps 605 mmHg 82%
    03:00 -4°C° 0 mm 1 mps 605 mmHg 79%
    04:00 -4°C° 0 mm 1 mps 604 mmHg 77%
    05:00 -6°C° 0 mm 1 mps 604 mmHg 75%
    06:00 -6°C° 0 mm 1 mps 604 mmHg 73%
    07:00 -6°C° 0 mm 1 mps 605 mmHg 71%
    08:00 -6°C° 0 mm 1 mps 605 mmHg 69%
    09:00 -4°C° 0 mm 1 mps 605 mmHg 65%
    10:00 -4°C° 0 mm 2 mps 606 mmHg 61%
    11:00 -3°C° 0 mm 2 mps 606 mmHg 57%
    12:00 -3°C° 0 mm 2 mps 606 mmHg 57%
    13:00 -2°C° 0 mm 2 mps 605 mmHg 57%
    14:00 -2°C° 0 mm 2 mps 604 mmHg 57%
    15:00 -3°C° 0 mm 2 mps 604 mmHg 58%
    16:00 -4°C° 0 mm 2 mps 604 mmHg 59%
    17:00 -5°C° 0 mm 2 mps 603 mmHg 60%
    18:00 -6°C° 0 mm 2 mps 604 mmHg 59%
    19:00 -7°C° 0 mm 2 mps 604 mmHg 58%
    20:00 -8°C° 0 mm 2 mps 604 mmHg 57%
    21:00 -8°C° 0 mm 2 mps 604 mmHg 56%
    22:00 -8°C° 0 mm 2 mps 604 mmHg 55%
    23:00 -8°C° 0 mm 2 mps 604 mmHg 54%
    Show more